| time (UTC) | temp F | wind direction | speed MPH | gust MPH | rain 1hr in | rain 24hr in | rain mn in | humidity % | barometer mb |
| 20260507115033 | 44 | 51 | 2.0 | 5.0 | 0.00 | 0.15 | 0.00 | 68 | 1012.7 |
| 20260507114548 | 43 | 0 | 0.0 | 4.0 | 0.00 | 0.15 | 0.00 | 69 | 1012.7 |
| 20260507114034 | 43 | 0 | 1.0 | 3.0 | 0.00 | 0.15 | 0.00 | 71 | 1012.7 |
| 20260507113532 | 42 | 0 | 0.0 | 4.0 | 0.00 | 0.15 | 0.00 | 71 | 1012.5 |
| 20260507113048 | 42 | 360 | 2.0 | 4.0 | 0.00 | 0.15 | 0.00 | 72 | 1012.4 |
| 20260507112536 | 41 | 0 | 0.0 | 0.0 | 0.00 | 0.15 | 0.00 | 74 | 1012.5 |
| 20260507112036 | 41 | 0 | 0.0 | 0.0 | 0.00 | 0.15 | 0.00 | 74 | 1012.5 |
| 20260507111548 | 41 | 0 | 0.0 | 2.0 | 0.00 | 0.15 | 0.00 | 74 | 1012.5 |
| 20260507111031 | 41 | 0 | 0.0 | 2.0 | 0.00 | 0.15 | 0.00 | 74 | 1012.4 |
| 20260507110532 | 41 | 0 | 0.0 | 2.0 | 0.00 | 0.15 | 0.00 | 74 | 1012.4 |
| 20260507110051 | 41 | 0 | 0.0 | 2.0 | 0.00 | 0.15 | 0.00 | 74 | 1012.4 |
| 20260507105532 | 41 | 0 | 0.0 | 2.0 | 0.00 | 0.17 | 0.00 | 74 | 1012.3 |
| 20260507105031 | 41 | 0 | 0.0 | 0.0 | 0.00 | 0.17 | 0.00 | 73 | 1012.3 |
| 20260507104554 | 41 | 0 | 0.0 | 0.0 | 0.00 | 0.17 | 0.00 | 73 | 1012.2 |
| 20260507104029 | 41 | 0 | 0.0 | 0.0 | 0.00 | 0.17 | 0.00 | 72 | 1012.2 |
| 20260507103532 | 41 | 0 | 0.0 | 0.0 | 0.00 | 0.17 | 0.00 | 72 | 1012.1 |
| 20260507103049 | 41 | 0 | 0.0 | 1.0 | 0.00 | 0.17 | 0.00 | 72 | 1012.1 |
| 20260507102532 | 41 | 0 | 0.0 | 2.0 | 0.00 | 0.17 | 0.00 | 72 | 1012.2 |
| 20260507102032 | 41 | 0 | 0.0 | 3.0 | 0.00 | 0.17 | 0.00 | 71 | 1011.9 |
| 20260507101601 | 41 | 0 | 0.0 | 3.0 | 0.00 | 0.17 | 0.00 | 71 | 1012.0 |
| 20260507101030 | 41 | 0 | 1.0 | 3.0 | 0.00 | 0.17 | 0.00 | 71 | 1012.0 |
| 20260507100531 | 41 | 360 | 1.0 | 3.0 | 0.00 | 0.17 | 0.00 | 70 | 1012.0 |
| 20260507100053 | 41 | 360 | 1.0 | 3.0 | 0.00 | 0.17 | 0.00 | 70 | 1012.0 |
| 20260507095533 | 41 | 360 | 1.0 | 4.0 | 0.00 | 0.17 | 0.00 | 70 | 1012.0 |
| 20260507095031 | 41 | 360 | 1.0 | 4.0 | 0.00 | 0.17 | 0.00 | 69 | 1012.0 |
| 20260507094558 | 42 | 360 | 1.0 | 4.0 | 0.00 | 0.17 | 0.00 | 69 | 1011.9 |
| 20260507094031 | 42 | 0 | 2.0 | 4.0 | 0.00 | 0.17 | 0.00 | 69 | 1011.9 |
| 20260507093531 | 42 | 360 | 1.0 | 4.0 | 0.00 | 0.17 | 0.00 | 68 | 1011.9 |
| 20260507093049 | 42 | 360 | 2.0 | 4.0 | 0.00 | 0.17 | 0.00 | 68 | 1011.9 |
| 20260507092534 | 42 | 360 | 2.0 | 4.0 | 0.00 | 0.17 | 0.00 | 68 | 1011.8 |
| 20260507092029 | 42 | 360 | 2.0 | 4.0 | 0.00 | 0.17 | 0.00 | 68 | 1011.8 |
| 20260507091559 | 42 | 19 | 1.0 | 4.0 | 0.00 | 0.17 | 0.00 | 68 | 1011.9 |
| 20260507091031 | 42 | 360 | 1.0 | 4.0 | 0.00 | 0.17 | 0.00 | 68 | 1011.9 |
| 20260507090533 | 42 | 360 | 1.0 | 4.0 | 0.00 | 0.17 | 0.00 | 68 | 1011.9 |
| 20260507085529 | 43 | 360 | 0.0 | 3.0 | 0.00 | 0.17 | 0.00 | 66 | 1011.9 |
| 20260507085031 | 43 | 0 | 0.0 | 2.0 | 0.00 | 0.17 | 0.00 | 66 | 1011.8 |
| 20260507084542 | 44 | 0 | 0.0 | 0.0 | 0.00 | 0.17 | 0.00 | 65 | 1011.7 |
| 20260507084030 | 44 | 0 | 0.0 | 0.0 | 0.00 | 0.17 | 0.00 | 64 | 1011.9 |
| 20260507083529 | 44 | 0 | 0.0 | 1.0 | 0.00 | 0.17 | 0.00 | 64 | 1011.9 |
| 20260507083048 | 45 | 0 | 0.0 | 1.0 | 0.00 | 0.17 | 0.00 | 63 | 1012.0 |
| 20260507082533 | 45 | 0 | 0.0 | 2.0 | 0.00 | 0.17 | 0.00 | 62 | 1012.0 |
| 20260507082030 | 45 | 0 | 0.0 | 3.0 | 0.00 | 0.17 | 0.00 | 61 | 1012.0 |
| 20260507081555 | 45 | 0 | 0.0 | 3.0 | 0.00 | 0.17 | 0.00 | 61 | 1012.0 |
| 20260507081031 | 45 | 360 | 0.0 | 5.0 | 0.00 | 0.17 | 0.00 | 61 | 1012.0 |
| 20260507080531 | 45 | 360 | 1.0 | 5.0 | 0.00 | 0.17 | 0.00 | 60 | 1011.8 |
| 20260507080045 | 46 | 360 | 2.0 | 5.0 | 0.00 | 0.17 | 0.00 | 60 | 1012.0 |
| 20260507075531 | 46 | 360 | 1.0 | 4.0 | 0.00 | 0.17 | 0.00 | 60 | 1012.0 |
| 20260507075031 | 46 | 360 | 2.0 | 4.0 | 0.00 | 0.17 | 0.00 | 60 | 1012.0 |
| 20260507074544 | 46 | 360 | 2.0 | 4.0 | 0.00 | 0.17 | 0.00 | 59 | 1012.0 |
| 20260507074031 | 46 | 360 | 2.0 | 5.0 | 0.00 | 0.17 | 0.00 | 59 | 1012.2 |
| 20260507073531 | 46 | 17 | 1.0 | 5.0 | 0.00 | 0.17 | 0.00 | 59 | 1012.2 |
| 20260507073057 | 46 | 360 | 3.0 | 5.0 | 0.00 | 0.17 | 0.00 | 59 | 1012.2 |
| 20260507072531 | 46 | 360 | 1.0 | 6.0 | 0.00 | 0.17 | 0.00 | 59 | 1012.0 |
| 20260507072028 | 46 | 5 | 2.0 | 6.0 | 0.00 | 0.17 | 0.00 | 59 | 1012.0 |
| 20260507071545 | 46 | 52 | 3.0 | 6.0 | 0.00 | 0.17 | 0.00 | 59 | 1011.9 |
| 20260507071029 | 46 | 49 | 0.0 | 5.0 | 0.00 | 0.17 | 0.00 | 59 | 1011.8 |
| 20260507070529 | 46 | 360 | 2.0 | 6.0 | 0.00 | 0.17 | 0.00 | 58 | 1011.8 |
| 20260507070110 | 46 | 360 | 3.0 | 6.0 | 0.00 | 0.17 | 0.00 | 58 | 1011.9 |
| 20260507065528 | 46 | 360 | 3.0 | 8.0 | 0.00 | 0.17 | 0.00 | 58 | 1012.0 |
| 20260507065029 | 46 | 360 | 2.0 | 8.0 | 0.00 | 0.17 | 0.00 | 58 | 1012.0 |
| 20260507064551 | 46 | 360 | 3.0 | 8.0 | 0.00 | 0.17 | 0.00 | 58 | 1012.0 |
| 20260507064029 | 47 | 360 | 2.0 | 8.0 | 0.00 | 0.17 | 0.00 | 58 | 1012.0 |
| 20260507063532 | 47 | 58 | 4.0 | 8.0 | 0.00 | 0.17 | 0.00 | 58 | 1012.0 |
| 20260507063047 | 47 | 360 | 3.0 | 6.0 | 0.00 | 0.17 | 0.00 | 58 | 1012.0 |
| 20260507062530 | 47 | 14 | 2.0 | 5.0 | 0.00 | 0.17 | 0.00 | 58 | 1012.0 |
| 20260507062030 | 47 | 360 | 1.0 | 5.0 | 0.00 | 0.17 | 0.00 | 58 | 1012.2 |
| 20260507061547 | 47 | 360 | 3.0 | 5.0 | 0.00 | 0.17 | 0.00 | 57 | 1012.2 |
| 20260507061030 | 47 | 360 | 2.0 | 4.0 | 0.00 | 0.17 | 0.00 | 58 | 1012.3 |
| 20260507060531 | 47 | 0 | 2.0 | 5.0 | 0.00 | 0.17 | 0.00 | 57 | 1012.5 |
| 20260507060051 | 47 | 360 | 2.0 | 5.0 | 0.00 | 0.17 | 0.00 | 57 | 1012.5 |
| 20260507055530 | 47 | 360 | 3.0 | 5.0 | 0.00 | 0.17 | 0.00 | 57 | 1012.4 |
| 20260507055034 | 47 | 360 | 3.0 | 8.0 | 0.00 | 0.17 | 0.00 | 57 | 1012.4 |
| 20260507054552 | 47 | 360 | 3.0 | 8.0 | 0.00 | 0.17 | 0.00 | 56 | 1012.4 |
| 20260507054032 | 47 | 355 | 3.0 | 7.0 | 0.00 | 0.17 | 0.00 | 57 | 1012.3 |
| 20260507053530 | 47 | 0 | 3.0 | 6.0 | 0.00 | 0.17 | 0.00 | 56 | 1012.2 |
| 20260507053054 | 47 | 360 | 3.0 | 6.0 | 0.00 | 0.17 | 0.00 | 56 | 1012.2 |
| 20260507052529 | 48 | 360 | 2.0 | 6.0 | 0.00 | 0.17 | 0.00 | 57 | 1012.2 |
| 20260507052031 | 48 | 360 | 4.0 | 7.0 | 0.00 | 0.17 | 0.00 | 56 | 1012.5 |
| 20260507051549 | 48 | 360 | 3.0 | 7.0 | 0.00 | 0.17 | 0.00 | 56 | 1012.6 |
| 20260507051028 | 48 | 360 | 1.0 | 6.0 | 0.00 | 0.17 | 0.00 | 57 | 1012.5 |
| 20260507050528 | 48 | 360 | 2.0 | 6.0 | 0.00 | 0.17 | 0.00 | 56 | 1012.5 |
| 20260507050048 | 48 | 0 | 0.0 | 4.0 | 0.00 | 0.17 | 0.00 | 57 | 1012.4 |
| 20260507045533 | 48 | 360 | 1.0 | 6.0 | 0.00 | 0.17 | 0.00 | 57 | 1012.3 |
| 20260507045032 | 48 | 360 | 2.0 | 7.0 | 0.00 | 0.17 | 0.00 | 57 | 1012.2 |
| 20260507044550 | 48 | 360 | 4.0 | 7.0 | 0.00 | 0.17 | 0.00 | 56 | 1012.6 |
| 20260507044032 | 48 | 360 | 3.0 | 6.0 | 0.00 | 0.17 | 0.00 | 57 | 1012.5 |
| 20260507043531 | 49 | 360 | 2.0 | 6.0 | 0.00 | 0.17 | 0.00 | 57 | 1012.5 |
| 20260507043049 | 49 | 360 | 3.0 | 5.0 | 0.00 | 0.17 | 0.00 | 57 | 1012.3 |
| 20260507042530 | 49 | 360 | 1.0 | 5.0 | 0.00 | 0.17 | 0.00 | 60 | 1012.3 |
| 20260507042031 | 49 | 360 | 0.0 | 5.0 | 0.00 | 0.17 | 0.00 | 60 | 1012.4 |
| 20260507041549 | 49 | 360 | 1.0 | 6.0 | 0.00 | 0.17 | 0.00 | 59 | 1012.4 |
| 20260507041029 | 49 | 360 | 3.0 | 6.0 | 0.00 | 0.17 | 0.00 | 60 | 1011.9 |
| 20260507040531 | 49 | 360 | 0.0 | 5.0 | 0.00 | 0.17 | 0.00 | 62 | 1011.7 |
| 20260507040053 | 49 | 360 | 1.0 | 8.0 | 0.00 | 0.17 | 0.00 | 62 | 1011.9 |
| 20260507035529 | 49 | 360 | 2.0 | 8.0 | 0.00 | 0.17 | 0.17 | 62 | 1011.9 |
| 20260507035029 | 49 | 360 | 3.0 | 8.0 | 0.00 | 0.17 | 0.17 | 61 | 1012.1 |
| 20260507034549 | 49 | 360 | 2.0 | 5.0 | 0.00 | 0.17 | 0.17 | 61 | 1012.1 |
| 20260507034029 | 49 | 360 | 2.0 | 5.0 | 0.00 | 0.17 | 0.17 | 61 | 1012.1 |
| 20260507033528 | 49 | 360 | 2.0 | 6.0 | 0.00 | 0.17 | 0.17 | 61 | 1011.9 |
| 20260507033048 | 49 | 360 | 2.0 | 7.0 | 0.00 | 0.17 | 0.17 | 61 | 1012.0 |
| 20260507032528 | 49 | 360 | 2.0 | 7.0 | 0.00 | 0.17 | 0.17 | 60 | 1011.9 |
| 20260507032030 | 50 | 360 | 2.0 | 11.0 | 0.00 | 0.17 | 0.17 | 60 | 1011.7 |
| 20260507031546 | 50 | 360 | 4.0 | 11.0 | 0.00 | 0.17 | 0.17 | 60 | 1011.9 |
| 20260507031034 | 50 | 360 | 4.0 | 10.0 | 0.00 | 0.17 | 0.17 | 61 | 1011.7 |
| 20260507030531 | 50 | 360 | 3.0 | 11.0 | 0.00 | 0.17 | 0.17 | 62 | 1011.7 |
| 20260507030056 | 50 | 54 | 3.0 | 11.0 | 0.00 | 0.17 | 0.17 | 63 | 1011.5 |
| 20260507025528 | 50 | 360 | 3.0 | 11.0 | 0.00 | 0.17 | 0.17 | 64 | 1011.6 |
| 20260507025030 | 50 | 360 | 4.0 | 13.0 | 0.00 | 0.17 | 0.17 | 67 | 1011.6 |
| 20260507024548 | 50 | 360 | 5.0 | 13.0 | 0.00 | 0.17 | 0.17 | 67 | 1011.4 |
| 20260507024029 | 50 | 360 | 2.0 | 14.0 | 0.00 | 0.17 | 0.17 | 68 | 1011.3 |
| 20260507023531 | 51 | 360 | 7.0 | 14.0 | 0.00 | 0.17 | 0.17 | 69 | 1011.1 |
| 20260507023048 | 51 | 360 | 3.0 | 13.0 | 0.00 | 0.17 | 0.17 | 72 | 1011.2 |
| 20260507022532 | 51 | 51 | 8.0 | 13.0 | 0.00 | 0.17 | 0.17 | 71 | 1011.0 |
| 20260507022032 | 51 | 360 | 6.0 | 13.0 | 0.00 | 0.17 | 0.17 | 72 | 1011.0 |
| 20260507021607 | 51 | 360 | 7.0 | 15.0 | 0.00 | 0.17 | 0.17 | 73 | 1011.0 |
| 20260507021030 | 51 | 360 | 6.0 | 15.0 | 0.00 | 0.17 | 0.17 | 74 | 1011.1 |
| 20260507020532 | 51 | 360 | 2.0 | 6.0 | 0.00 | 0.17 | 0.17 | 75 | 1011.2 |
| 20260507020052 | 51 | 360 | 2.0 | 11.0 | 0.00 | 0.17 | 0.17 | 75 | 1011.1 |
| 20260507015531 | 51 | 360 | 4.0 | 11.0 | 0.00 | 0.17 | 0.17 | 75 | 1011.1 |
| 20260507015031 | 51 | 360 | 2.0 | 8.0 | 0.00 | 0.17 | 0.17 | 77 | 1011.2 |
| 20260507014609 | 52 | 0 | 1.0 | 5.0 | 0.00 | 0.17 | 0.17 | 77 | 1011.4 |
| 20260507014030 | 52 | 360 | 1.0 | 5.0 | 0.00 | 0.17 | 0.17 | 77 | 1011.5 |
| 20260507013530 | 52 | 0 | 0.0 | 4.0 | 0.00 | 0.17 | 0.17 | 77 | 1011.3 |
| 20260507013053 | 52 | 0 | 1.0 | 4.0 | 0.00 | 0.17 | 0.17 | 76 | 1011.4 |
| 20260507012531 | 52 | 360 | 0.0 | 4.0 | 0.00 | 0.17 | 0.17 | 76 | 1011.5 |
| 20260507012034 | 52 | 49 | 1.0 | 3.0 | 0.00 | 0.17 | 0.17 | 76 | 1011.4 |
| 20260507011548 | 52 | 360 | 0.0 | 5.0 | 0.00 | 0.17 | 0.17 | 76 | 1011.4 |
| 20260507011030 | 52 | 0 | 2.0 | 6.0 | 0.00 | 0.17 | 0.17 | 76 | 1011.4 |
| 20260507010533 | 52 | 360 | 2.0 | 8.0 | 0.00 | 0.17 | 0.17 | 76 | 1011.6 |
| 20260507005531 | 52 | 360 | 4.0 | 9.0 | 0.00 | 0.17 | 0.17 | 75 | 1011.3 |
| 20260507005030 | 52 | 360 | 3.0 | 9.0 | 0.00 | 0.17 | 0.17 | 75 | 1011.2 |
| 20260507004547 | 52 | 0 | 2.0 | 8.0 | 0.00 | 0.17 | 0.17 | 76 | 1011.4 |
| 20260507004030 | 52 | 65 | 3.0 | 10.0 | 0.00 | 0.17 | 0.17 | 75 | 1011.4 |
| 20260507003531 | 52 | 360 | 3.0 | 13.0 | 0.00 | 0.17 | 0.17 | 75 | 1011.2 |
| 20260507003044 | 52 | 360 | 6.0 | 13.0 | 0.00 | 0.17 | 0.17 | 75 | 1011.2 |
| 20260507002532 | 52 | 360 | 1.0 | 4.0 | 0.00 | 0.17 | 0.17 | 77 | 1011.1 |
| 20260507002033 | 52 | 51 | 1.0 | 6.0 | 0.00 | 0.17 | 0.17 | 77 | 1010.9 |
| 20260507001552 | 52 | 0 | 0.0 | 9.0 | 0.00 | 0.17 | 0.17 | 77 | 1010.7 |
| 20260507001030 | 52 | 360 | 3.0 | 9.0 | 0.00 | 0.17 | 0.17 | 77 | 1010.6 |
| 20260507000531 | 52 | 360 | 4.0 | 9.0 | 0.00 | 0.17 | 0.17 | 78 | 1010.7 |
| 20260507000052 | 52 | 355 | 4.0 | 9.0 | 0.00 | 0.17 | 0.17 | 78 | 1010.7 |
| 20260506235531 | 52 | 5 | 5.0 | 10.0 | 0.00 | 0.17 | 0.17 | 78 | 1010.3 |
| 20260506235030 | 52 | 360 | 5.0 | 10.0 | 0.00 | 0.17 | 0.17 | 78 | 1010.3 |
| 20260506234548 | 52 | 360 | 5.0 | 9.0 | 0.00 | 0.17 | 0.17 | 78 | 1010.3 |
| 20260506234034 | 52 | 360 | 4.0 | 9.0 | 0.00 | 0.17 | 0.17 | 78 | 1010.2 |
| 20260506233532 | 52 | 360 | 2.0 | 9.0 | 0.00 | 0.17 | 0.17 | 78 | 1010.1 |
| 20260506233049 | 52 | 360 | 3.0 | 9.0 | 0.00 | 0.17 | 0.17 | 78 | 1010.0 |
| 20260506232530 | 52 | 360 | 4.0 | 9.0 | 0.00 | 0.17 | 0.17 | 78 | 1009.9 |
| 20260506232030 | 52 | 360 | 4.0 | 9.0 | 0.00 | 0.17 | 0.17 | 78 | 1009.9 |
| 20260506231549 | 52 | 360 | 3.0 | 8.0 | 0.00 | 0.17 | 0.17 | 78 | 1009.9 |
| 20260506231030 | 52 | 360 | 3.0 | 7.0 | 0.00 | 0.17 | 0.17 | 78 | 1009.7 |
| 20260506230531 | 53 | 360 | 2.0 | 10.0 | 0.00 | 0.17 | 0.17 | 78 | 1009.8 |
| 20260506230044 | 53 | 360 | 3.0 | 14.0 | 0.00 | 0.17 | 0.17 | 78 | 1009.8 |
| 20260506225531 | 53 | 360 | 5.0 | 14.0 | 0.00 | 0.17 | 0.17 | 78 | 1009.8 |
| 20260506225029 | 53 | 360 | 6.0 | 14.0 | 0.00 | 0.17 | 0.17 | 77 | 1009.9 |
| 20260506224549 | 53 | 360 | 7.0 | 14.0 | 0.00 | 0.17 | 0.17 | 78 | 1009.9 |
| 20260506224028 | 54 | 360 | 6.0 | 14.0 | 0.00 | 0.17 | 0.17 | 78 | 1009.8 |
| 20260506223531 | 54 | 360 | 7.0 | 14.0 | 0.00 | 0.17 | 0.17 | 78 | 1009.7 |
| 20260506223047 | 54 | 360 | 8.0 | 14.0 | 0.00 | 0.17 | 0.17 | 78 | 1009.6 |
| 20260506222529 | 54 | 349 | 9.0 | 14.0 | 0.00 | 0.17 | 0.17 | 78 | 1009.3 |
| 20260506222029 | 54 | 360 | 7.0 | 17.0 | 0.00 | 0.17 | 0.17 | 77 | 1009.2 |
| 20260506221552 | 54 | 360 | 7.0 | 17.0 | 0.00 | 0.17 | 0.17 | 77 | 1009.2 |
| 20260506221028 | 55 | 360 | 10.0 | 14.0 | 0.00 | 0.17 | 0.17 | 76 | 1009.0 |
| 20260506220528 | 55 | 360 | 7.0 | 14.0 | 0.00 | 0.17 | 0.17 | 76 | 1008.9 |
| 20260506220052 | 55 | 65 | 4.0 | 12.0 | 0.00 | 0.17 | 0.17 | 77 | 1009.0 |
| 20260506215528 | 55 | 360 | 5.0 | 12.0 | 0.00 | 0.17 | 0.17 | 77 | 1009.0 |
| 20260506215028 | 55 | 360 | 4.0 | 15.0 | 0.00 | 0.17 | 0.17 | 76 | 1009.0 |
| 20260506214547 | 56 | 360 | 5.0 | 15.0 | 0.00 | 0.17 | 0.17 | 76 | 1008.7 |
| 20260506214029 | 56 | 360 | 4.0 | 14.0 | 0.00 | 0.17 | 0.17 | 77 | 1008.8 |
| 20260506213529 | 56 | 360 | 7.0 | 14.0 | 0.00 | 0.17 | 0.17 | 76 | 1008.6 |
| 20260506213043 | 57 | 348 | 7.0 | 13.0 | 0.00 | 0.17 | 0.17 | 77 | 1008.5 |
| 20260506212528 | 57 | 334 | 5.0 | 11.0 | 0.00 | 0.17 | 0.17 | 77 | 1008.4 |
| 20260506212031 | 57 | 360 | 5.0 | 12.0 | 0.00 | 0.17 | 0.17 | 76 | 1008.3 |
| 20260506211544 | 57 | 360 | 6.0 | 16.0 | 0.00 | 0.17 | 0.17 | 77 | 1008.1 |
| 20260506211031 | 58 | 360 | 8.0 | 16.0 | 0.00 | 0.17 | 0.17 | 77 | 1007.8 |
| 20260506210532 | 58 | 360 | 5.0 | 18.0 | 0.00 | 0.17 | 0.17 | 76 | 1007.8 |
| 20260506210051 | 58 | 360 | 7.0 | 17.0 | 0.00 | 0.17 | 0.17 | 76 | 1007.6 |
| 20260506205527 | 58 | 360 | 8.0 | 17.0 | 0.00 | 0.20 | 0.17 | 77 | 1007.6 |
| 20260506205030 | 58 | 360 | 8.0 | 17.0 | 0.00 | 0.20 | 0.17 | 77 | 1007.5 |
| 20260506204547 | 58 | 360 | 6.0 | 16.0 | 0.00 | 0.20 | 0.17 | 78 | 1007.6 |
| 20260506204029 | 58 | 263 | 8.0 | 16.0 | 0.00 | 0.20 | 0.17 | 78 | 1007.5 |
| 20260506203528 | 58 | 360 | 6.0 | 12.0 | 0.00 | 0.20 | 0.17 | 79 | 1007.4 |
| 20260506203051 | 58 | 279 | 5.0 | 14.0 | 0.00 | 0.20 | 0.17 | 79 | 1007.4 |
| 20260506202529 | 58 | 360 | 8.0 | 15.0 | 0.00 | 0.20 | 0.17 | 79 | 1007.4 |
| 20260506202029 | 58 | 360 | 7.0 | 15.0 | 0.00 | 0.20 | 0.17 | 80 | 1007.5 |
| 20260506201607 | 58 | 360 | 7.0 | 17.0 | 0.00 | 0.20 | 0.17 | 81 | 1007.4 |
| 20260506201028 | 58 | 360 | 9.0 | 17.0 | 0.00 | 0.20 | 0.17 | 80 | 1007.2 |
| 20260506200528 | 58 | 281 | 8.0 | 17.0 | 0.00 | 0.20 | 0.17 | 81 | 1007.2 |
| 20260506200043 | 58 | 275 | 10.0 | 17.0 | 0.00 | 0.20 | 0.17 | 81 | 1007.2 |
| 20260506195531 | 58 | 360 | 6.0 | 15.0 | 0.00 | 0.20 | 0.17 | 82 | 1007.1 |
| 20260506195031 | 58 | 360 | 10.0 | 15.0 | 0.00 | 0.20 | 0.17 | 82 | 1007.0 |
| 20260506194549 | 58 | 360 | 5.0 | 16.0 | 0.00 | 0.20 | 0.17 | 82 | 1007.0 |
| 20260506194030 | 59 | 349 | 8.0 | 16.0 | 0.00 | 0.20 | 0.17 | 82 | 1006.9 |
| 20260506193530 | 59 | 360 | 8.0 | 18.0 | 0.00 | 0.20 | 0.17 | 82 | 1006.7 |
| 20260506193051 | 60 | 360 | 8.0 | 18.0 | 0.00 | 0.20 | 0.17 | 81 | 1006.8 |
| 20260506192530 | 60 | 360 | 11.0 | 18.0 | 0.00 | 0.20 | 0.17 | 81 | 1006.8 |
| 20260506192031 | 61 | 360 | 8.0 | 15.0 | 0.00 | 0.20 | 0.17 | 81 | 1006.6 |
| 20260506191547 | 61 | 360 | 6.0 | 18.0 | 0.00 | 0.20 | 0.17 | 81 | 1006.6 |
| 20260506191031 | 61 | 284 | 9.0 | 18.0 | 0.00 | 0.20 | 0.17 | 82 | 1006.5 |
| 20260506190530 | 62 | 360 | 10.0 | 15.0 | 0.00 | 0.20 | 0.17 | 82 | 1006.5 |
| 20260506190047 | 62 | 360 | 8.0 | 15.0 | 0.00 | 0.20 | 0.17 | 84 | 1006.3 |
| 20260506185528 | 61 | 278 | 6.0 | 12.0 | 0.00 | 0.20 | 0.17 | 85 | 1006.3 |
| 20260506185031 | 61 | 360 | 4.0 | 10.0 | 0.00 | 0.20 | 0.17 | 85 | 1006.4 |
| 20260506184553 | 61 | 252 | 3.0 | 10.0 | 0.00 | 0.20 | 0.17 | 87 | 1006.2 |
| 20260506184030 | 60 | 242 | 3.0 | 10.0 | 0.00 | 0.20 | 0.17 | 87 | 1006.2 |
| 20260506183530 | 60 | 273 | 5.0 | 10.0 | 0.01 | 0.20 | 0.17 | 87 | 1006.4 |
| 20260506183044 | 59 | 277 | 4.0 | 10.0 | 0.01 | 0.20 | 0.17 | 88 | 1006.5 |
| 20260506182530 | 59 | 0 | 5.0 | 10.0 | 0.01 | 0.20 | 0.17 | 89 | 1006.4 |
| 20260506182033 | 58 | 360 | 4.0 | 10.0 | 0.01 | 0.20 | 0.17 | 88 | 1006.5 |
| 20260506181541 | 58 | 279 | 4.0 | 10.0 | 0.01 | 0.20 | 0.17 | 88 | 1006.5 |
| 20260506181032 | 58 | 360 | 3.0 | 12.0 | 0.01 | 0.20 | 0.17 | 89 | 1006.4 |
| 20260506180531 | 58 | 360 | 7.0 | 12.0 | 0.02 | 0.20 | 0.17 | 89 | 1006.5 |
| 20260506180052 | 58 | 360 | 4.0 | 13.0 | 0.02 | 0.20 | 0.17 | 89 | 1006.5 |
| 20260506175533 | 58 | 360 | 3.0 | 14.0 | 0.02 | 0.20 | 0.17 | 89 | 1006.5 |
| 20260506175033 | 58 | 360 | 6.0 | 14.0 | 0.02 | 0.20 | 0.17 | 89 | 1006.5 |
| 20260506174545 | 59 | 275 | 6.0 | 13.0 | 0.02 | 0.20 | 0.17 | 90 | 1006.4 |
| 20260506174033 | 59 | 269 | 3.0 | 7.0 | 0.02 | 0.20 | 0.17 | 90 | 1006.4 |
| 20260506173530 | 58 | 273 | 3.0 | 8.0 | 0.01 | 0.19 | 0.16 | 89 | 1006.2 |
| 20260506173112 | 58 | 360 | 2.0 | 8.0 | 0.01 | 0.19 | 0.16 | 89 | 1006.2 |
| 20260506172530 | 58 | 360 | 2.0 | 10.0 | 0.01 | 0.19 | 0.16 | 89 | 1006.2 |
| 20260506172032 | 58 | 0 | 3.0 | 11.0 | 0.01 | 0.19 | 0.16 | 89 | 1006.4 |
| 20260506171555 | 58 | 240 | 3.0 | 12.0 | 0.01 | 0.19 | 0.16 | 89 | 1006.2 |
| 20260506171030 | 58 | 248 | 6.0 | 12.0 | 0.01 | 0.19 | 0.16 | 88 | 1006.2 |
| 20260506170529 | 59 | 252 | 4.0 | 11.0 | 0.00 | 0.18 | 0.15 | 88 | 1006.1 |
| 20260506170054 | 59 | 360 | 4.0 | 11.0 | 0.00 | 0.18 | 0.15 | 88 | 1006.0 |
| 20260506165533 | 59 | 254 | 2.0 | 15.0 | 0.00 | 0.18 | 0.15 | 88 | 1006.0 |
| 20260506165030 | 59 | 233 | 5.0 | 15.0 | 0.00 | 0.18 | 0.15 | 88 | 1006.0 |
| 20260506164547 | 59 | 360 | 5.0 | 15.0 | 0.00 | 0.18 | 0.15 | 89 | 1006.0 |
| 20260506164029 | 59 | 252 | 4.0 | 14.0 | 0.00 | 0.18 | 0.15 | 89 | 1006.0 |
| 20260506163532 | 59 | 245 | 4.0 | 11.0 | 0.00 | 0.18 | 0.15 | 89 | 1006.1 |
| 20260506163101 | 59 | 239 | 4.0 | 11.0 | 0.00 | 0.18 | 0.15 | 89 | 1006.1 |
| 20260506162532 | 59 | 242 | 5.0 | 11.0 | 0.00 | 0.18 | 0.15 | 89 | 1006.2 |
| 20260506162035 | 59 | 0 | 3.0 | 9.0 | 0.00 | 0.18 | 0.15 | 89 | 1006.2 |
| 20260506161548 | 59 | 235 | 2.0 | 9.0 | 0.00 | 0.18 | 0.15 | 90 | 1006.3 |
| 20260506161036 | 59 | 244 | 3.0 | 10.0 | 0.00 | 0.18 | 0.15 | 90 | 1006.2 |
| 20260506160535 | 58 | 242 | 4.0 | 10.0 | 0.00 | 0.18 | 0.15 | 90 | 1006.2 |
| 20260506160050 | 58 | 252 | 4.0 | 8.0 | 0.00 | 0.18 | 0.15 | 90 | 1006.2 |
| 20260506155529 | 58 | 360 | 2.0 | 9.0 | 0.00 | 0.18 | 0.15 | 90 | 1006.2 |
| 20260506155029 | 57 | 239 | 2.0 | 9.0 | 0.00 | 0.18 | 0.15 | 89 | 1006.2 |
| 20260506154600 | 57 | 0 | 4.0 | 11.0 | 0.00 | 0.18 | 0.15 | 89 | 1006.2 |
| 20260506154029 | 57 | 237 | 3.0 | 11.0 | 0.00 | 0.18 | 0.15 | 89 | 1006.2 |
| 20260506153530 | 57 | 246 | 2.0 | 10.0 | 0.00 | 0.18 | 0.15 | 89 | 1006.4 |
| 20260506153042 | 57 | 0 | 2.0 | 13.0 | 0.00 | 0.18 | 0.15 | 88 | 1006.3 |
| 20260506152531 | 57 | 236 | 4.0 | 13.0 | 0.00 | 0.18 | 0.15 | 88 | 1006.3 |
| 20260506152032 | 57 | 360 | 4.0 | 10.0 | 0.00 | 0.18 | 0.15 | 88 | 1006.2 |
| 20260506151549 | 57 | 360 | 4.0 | 8.0 | 0.00 | 0.18 | 0.15 | 88 | 1006.1 |
| 20260506151030 | 57 | 0 | 3.0 | 9.0 | 0.00 | 0.18 | 0.15 | 88 | 1006.1 |
| 20260506150530 | 57 | 254 | 2.0 | 10.0 | 0.00 | 0.18 | 0.15 | 88 | 1006.1 |
| 20260506150048 | 57 | 360 | 3.0 | 11.0 | 0.00 | 0.18 | 0.15 | 88 | 1006.0 |
| 20260506145531 | 57 | 360 | 2.0 | 11.0 | 0.00 | 0.18 | 0.15 | 88 | 1006.0 |
| 20260506145034 | 57 | 360 | 3.0 | 11.0 | 0.00 | 0.18 | 0.15 | 88 | 1006.0 |
| 20260506144548 | 57 | 0 | 4.0 | 8.0 | 0.01 | 0.18 | 0.15 | 88 | 1005.8 |
| 20260506144029 | 57 | 0 | 1.0 | 8.0 | 0.01 | 0.18 | 0.15 | 88 | 1005.8 |
| 20260506143532 | 57 | 360 | 1.0 | 8.0 | 0.01 | 0.18 | 0.15 | 88 | 1005.9 |
| 20260506143045 | 57 | 253 | 4.0 | 8.0 | 0.01 | 0.18 | 0.15 | 88 | 1006.0 |
| 20260506142553 | 57 | 0 | 1.0 | 7.0 | 0.01 | 0.18 | 0.15 | 88 | 1005.9 |
| 20260506142030 | 57 | 280 | 3.0 | 8.0 | 0.01 | 0.18 | 0.15 | 88 | 1005.8 |
| 20260506141549 | 56 | 0 | 1.0 | 10.0 | 0.02 | 0.18 | 0.15 | 88 | 1005.9 |
| 20260506141032 | 56 | 238 | 2.0 | 10.0 | 0.02 | 0.18 | 0.15 | 88 | 1005.9 |
| 20260506140532 | 56 | 248 | 3.0 | 10.0 | 0.02 | 0.18 | 0.15 | 88 | 1005.8 |
| 20260506140054 | 56 | 248 | 3.0 | 9.0 | 0.02 | 0.18 | 0.15 | 88 | 1005.9 |
| 20260506135530 | 56 | 0 | 4.0 | 9.0 | 0.02 | 0.18 | 0.15 | 87 | 1005.7 |
| 20260506135032 | 56 | 0 | 1.0 | 4.0 | 0.01 | 0.17 | 0.14 | 88 | 1005.8 |
| 20260506134541 | 56 | 254 | 1.0 | 5.0 | 0.01 | 0.17 | 0.14 | 88 | 1006.0 |
| 20260506134031 | 56 | 261 | 1.0 | 5.0 | 0.01 | 0.17 | 0.14 | 87 | 1005.9 |
| 20260506133528 | 56 | 360 | 0.0 | 2.0 | 0.01 | 0.17 | 0.14 | 87 | 1006.0 |
| 20260506133050 | 56 | 0 | 0.0 | 3.0 | 0.01 | 0.17 | 0.14 | 87 | 1005.9 |
| 20260506132530 | 56 | 0 | 0.0 | 3.0 | 0.01 | 0.17 | 0.14 | 87 | 1006.1 |
| 20260506132029 | 56 | 360 | 1.0 | 8.0 | 0.02 | 0.17 | 0.14 | 87 | 1006.2 |
| 20260506131548 | 56 | 0 | 2.0 | 8.0 | 0.01 | 0.16 | 0.13 | 87 | 1006.2 |
| 20260506131030 | 56 | 0 | 2.0 | 8.0 | 0.02 | 0.16 | 0.13 | 87 | 1006.2 |
| 20260506130531 | 56 | 360 | 2.0 | 8.0 | 0.03 | 0.16 | 0.13 | 87 | 1006.1 |
| 20260506130053 | 56 | 238 | 2.0 | 9.0 | 0.04 | 0.16 | 0.13 | 87 | 1006.2 |
| 20260506125530 | 56 | 255 | 3.0 | 9.0 | 0.05 | 0.16 | 0.13 | 87 | 1006.1 |
| 20260506125030 | 56 | 252 | 1.0 | 5.0 | 0.05 | 0.16 | 0.13 | 87 | 1005.9 |
| 20260506124549 | 56 | 253 | 2.0 | 5.0 | 0.06 | 0.16 | 0.13 | 87 | 1006.0 |
| 20260506124030 | 56 | 252 | 2.0 | 5.0 | 0.07 | 0.16 | 0.13 | 87 | 1006.1 |
| 20260506123530 | 56 | 238 | 2.0 | 5.0 | 0.08 | 0.16 | 0.13 | 87 | 1006.1 |
| 20260506123045 | 56 | 239 | 1.0 | 5.0 | 0.09 | 0.16 | 0.13 | 87 | 1006.0 |
| 20260506122530 | 56 | 239 | 0.0 | 5.0 | 0.10 | 0.16 | 0.13 | 87 | 1006.2 |
| 20260506122032 | 56 | 0 | 1.0 | 5.0 | 0.10 | 0.15 | 0.12 | 87 | 1006.1 |
| 20260506121549 | 56 | 0 | 0.0 | 4.0 | 0.10 | 0.15 | 0.12 | 87 | 1006.0 |
| 20260506121030 | 56 | 0 | 0.0 | 3.0 | 0.08 | 0.13 | 0.10 | 87 | 1006.1 |
| 20260506120528 | 56 | 0 | 0.0 | 3.0 | 0.08 | 0.13 | 0.10 | 87 | 1006.4 |
| 20260506120106 | 56 | 0 | 0.0 | 2.0 | 0.07 | 0.12 | 0.09 | 87 | 1006.6 |
| 20260506115528 | 56 | 0 | 0.0 | 4.0 | 0.06 | 0.11 | 0.08 | 87 | 1006.6 |